Startseite
Über Mich
AHP4
Galerie
Sehschlangen
Tourenbuch
Bookmarks
Elektronik
Bewertung
Geschichten
[Tagesmessung] [Jahreswerte] [Information]

Messwerte vom 23.05.2022

Die letzten Messwerte von 23:58:48 Uhr:
KategorieMesswert
Temperatur [°C]19
Luftdruck [mBar]983
Sonneneinstrahlung0
Wind [km/h]8 aus Südost
Niederschlag [l/m²]0
rel.Luftfeucht.66.8%
CO2 [ppm]413

Diagramme
Messwerte vom 23.05.2022
Tagesaggregation
KategorieMinimumMaximumSchnittSumme
Temperatur [°C]73017.6438
Luftdruck [mBar]982998990.3063
Sonneneinstrahlung247139.0167
Wind [km/h]22
rF [%]3793.765.57
Niederschlag [l/m²]0
CO2 [ppm]401454419.9
Einordnung alsVegetationstag
Sommertag
Heißer Tag

Messungen an benachbarten Tagen: Zur Jahresaggregation 2022
Tabelle aller Messwerte
UhrzeitTemperatur [°C]Luftdruck [mBar]SonneWind [km/h]RichtungRegen [l/m²]rF [%]CO2 [ppm]
00:01:47 9 998 0 0 N 0 84.4 424
00:04:49 9 997 0 0 N 0 84.7 428
00:07:46 9 998 0 2 N 0 85.1 430
00:10:48 9 998 0 0 O 0 85.3 434
00:13:48 9 998 0 0 O 0 85.2 433
00:16:47 9 998 0 0 O 0 85.1 440
00:19:48 9 998 0 0 O 0 85 444
00:22:46 9 997 0 2 N 0 85.2 445
00:25:45 9 997 0 1 O 0 85.3 434
00:28:43 9 997 0 1 N 0 85.7 430
00:31:50 9 997 0 0 NO 0 85.2 427
00:34:51 9 997 0 0 NO 0 84.8 428
00:37:50 9 998 0 0 NO 0 84.7 439
00:40:47 9 998 0 0 NO 0 84.9 439
00:43:47 9 997 0 1 NO 0 85.8 436
00:46:47 9 997 0 0 NO 0 86.8 440
00:49:45 9 997 0 0 NO 0 87 440
00:52:50 9 997 0 0 NO 0 86.8 439
00:55:47 9 997 0 0 NO 0 86.7 436
00:58:48 9 997 0 0 NO 0 86.7 436
01:01:47 9 996 0 0 NO 0 86.8 442
01:04:46 9 997 0 0 NO 0 86.8 446
01:07:46 8 997 0 0 NO 0 87 442
01:10:45 8 997 0 0 NO 0 87.3 442
01:13:46 9 997 0 2 O 0 89.6 442
01:16:46 9 997 0 0 O 0 90 442
01:19:45 9 997 0 0 O 0 89.5 438
01:22:47 9 996 0 0 O 0 88.3 439
01:25:47 9 997 0 0 O 0 87.8 433
01:28:45 9 996 0 0 N 0 87.9 437
01:31:45 8 997 0 0 N 0 88.1 445
01:34:46 8 997 0 0 N 0 88.2 448
01:37:47 8 997 0 0 NO 0 88.3 448
01:40:47 8 997 0 0 NO 0 88.5 448
01:43:46 8 996 0 0 NO 0 88.6 442
01:46:47 8 996 0 0 NO 0 88.7 443
01:49:49 8 996 0 0 NO 0 88.7 442
01:52:46 8 996 0 0 NO 0 89.2 443
01:55:48 8 996 0 0 NO 0 89.5 439
01:58:47 8 996 0 0 NO 0 89.4 439
02:01:50 8 996 0 0 NO 0 89.5 447
02:04:46 8 996 0 0 NO 0 89.5 445
02:07:46 8 996 0 0 NO 0 89.7 448
02:10:47 8 996 0 0 NO 0 89.7 448
02:13:46 8 997 0 0 NO 0 89.8 442
02:16:47 8 996 0 1 NO 0 90.1 445
02:19:48 8 996 0 0 NO 0 90.1 448
02:22:47 8 997 0 0 NO 0 90.3 449
02:25:46 8 996 0 0 NO 0 90.1 445
02:28:48 8 996 0 0 NO 0 90.1 443
02:31:49 8 996 0 0 NO 0 90.2 437
02:34:48 8 995 0 0 NO 0 90.1 446
02:37:45 8 996 0 0 NO 0 90.1 447
02:40:48 8 995 0 0 NO 0 90 445
02:43:45 8 996 0 0 NO 0 89.9 442
02:46:47 8 996 0 0 NO 0 90.1 443
02:49:47 8 995 0 0 N 0 90.9 445
02:52:46 8 996 0 0 NO 0 91.2 442
02:55:47 8 996 0 0 NO 0 91.4 442
02:58:46 8 996 0 0 NO 0 91.1 440
03:01:46 8 996 0 0 NO 0 90.9 436
03:04:48 8 995 0 1 NO 0 91.2 440
03:07:47 8 996 0 0 NO 0 91.8 439
03:10:47 8 995 0 0 NO 0 91.9 437
03:13:46 8 996 0 0 NO 0 91.5 439
03:16:45 8 995 0 0 NO 0 91.3 440
03:19:47 8 995 0 0 NO 0 91.6 439
03:22:46 8 995 0 0 NO 0 91.8 439
03:25:47 7 995 0 0 NO 0 91.8 446
03:28:46 7 995 0 0 NO 0 91.8 451
03:31:46 7 995 0 0 NO 0 91.8 451
03:34:47 7 995 0 0 NO 0 91.6 448
03:37:46 7 995 0 0 NO 0 91.6 446
03:40:44 7 995 0 0 NO 0 91.9 437
03:43:46 7 995 0 1 NO 0 93 446
03:46:46 8 995 0 0 NO 0 93.7 452
03:49:45 8 995 0 1 NO 0 93.5 447
03:52:45 8 995 0 1 NO 0 93.4 448
03:55:46 8 995 0 1 NO 0 93.1 443
03:58:48 8 995 0 0 NO 0 92.9 445
04:01:45 8 995 0 0 NO 0 93.4 448
04:04:49 8 995 0 0 NO 0 92.4 446
04:07:47 8 995 0 0 NO 0 92 452
04:10:46 8 995 0 3 N 0 92.3 448
04:13:45 8 995 0 0 NO 0 93.2 445
04:16:45 8 995 0 2 NO 0 93.3 451
04:19:46 8 995 0 0 NO 0 92.7 454
04:22:47 8 995 0 0 NO 0 92.5 451
04:25:46 8 995 0 0 O 0 91.8 443
04:28:47 8 995 0 0 NO 0 91.5 446
04:31:46 8 995 0 0 NO 0 91.6 439
04:34:47 8 995 0 0 NO 0 91.7 434
04:37:49 8 995 0 0 SO 0 91.6 440
04:40:47 8 995 3 0 O 0 91.4 439
04:43:46 8 995 4 0 O 0 91.4 437
04:46:46 8 995 6 0 O 0 91.7 439
04:49:51 8 995 9 0 NO 0 92 439
04:52:46 9 995 13 0 NO 0 92 439
04:55:46 9 995 18 0 O 0 91.6 442
04:58:45 9 995 24 0 O 0 90.9 436
05:01:49 9 995 30 0 SO 0 90.7 433
05:04:49 9 995 37 0 NO 0 90.7 436
05:07:48 9 995 45 1 NO 0 90.8 439
05:10:48 9 995 53 0 NO 0 90.9 442
05:13:46 9 995 62 0 O 0 90.8 436
05:16:47 9 995 74 0 SO 0 90.4 439
05:19:50 9 995 85 0 NO 0 90 439
05:22:47 9 995 94 2 O 0 90 439
05:25:48 9 995 105 1 SO 0 90 439
05:28:47 9 995 115 1 SO 0 89.8 442
05:31:45 9 995 125 1 O 0 89.5 436
05:34:48 9 995 135 0 NO 0 89.8 448
05:37:48 9 995 140 0 NO 0 90.1 445
05:40:45 9 995 145 0 SO 0 90.1 445
05:43:49 9 995 149 0 SO 0 90.1 442
05:46:48 9 995 151 0 NW 0 90.2 449
05:49:47 9 995 154 0 O 0 90.3 447
05:52:49 9 995 156 1 NW 0 90.4 442
05:55:47 9 995 158 0 NO 0 90.3 438
05:58:48 9 995 159 0 NO 0 90 442
06:01:50 9 995 162 0 NO 0 89.8 436
06:04:48 9 994 166 0 NO 0 89.7 447
06:07:47 9 995 170 0 NO 0 89.6 442
06:10:48 10 994 173 0 NO 0 89.4 436
06:13:48 10 995 176 0 O 0 89.3 436
06:16:47 10 995 178 0 O 0 88.9 434
06:19:49 10 995 180 0 NO 0 88.5 437
06:22:50 10 995 181 1 NO 0 87.8 433
06:25:46 11 995 182 1 O 0 87.3 439
06:28:48 11 994 183 0 O 0 87.1 436
06:31:48 11 995 185 1 N 0 86.8 442
06:34:46 11 995 185 0 N 0 86.8 436
06:37:48 11 995 187 0 O 0 86.5 439
06:40:47 11 995 189 0 O 0 86.4 437
06:43:48 11 995 191 0 NO 0 86.3 439
06:46:48 12 995 191 0 O 0 85.9 442
06:49:49 12 995 193 0 SO 0 85.4 439
06:52:48 12 994 192 0 O 0 84.9 433
06:55:49 12 995 195 0 NO 0 84.6 430
06:58:47 12 994 195 0 O 0 84.3 433
07:01:46 12 994 193 1 O 0 83.6 433
07:04:46 12 994 193 1 O 0 83.3 431
07:07:50 12 995 193 0 NO 0 82.7 434
07:10:46 12 994 194 0 O 0 82.7 439
07:13:46 13 995 193 0 O 0 82.5 433
07:16:48 13 994 196 1 SW 0 82.9 436
07:19:49 14 995 196 0 NO 0 82.9 430
07:22:51 15 994 198 1 SO 0 80.7 428
07:25:47 17 994 199 1 N 0 74.9 430
07:28:47 18 994 201 0 O 0 69.6 431
07:31:50 19 994 203 0 NO 0 65.8 436
07:34:49 19 994 205 3 SO 0 65.2 430
07:37:32 17 994 206 2 S 0 58.2 431
07:40:47 20 994 208 0 N 0 61.8 433
07:43:48 20 993 208 2 SO 0 59.9 430
07:46:47 20 994 209 1 O 0 58.8 428
07:49:49 20 994 209 0 O 0 59 425
07:52:51 20 993 209 1 NO 0 58.5 427
07:55:49 19 994 209 2 SO 0 57.9 439
07:58:51 18 994 210 0 NO 0 58.6 442
08:01:50 17 993 210 1 NO 0 62.5 431
08:04:48 17 993 209 0 SO 0 63.9 427
08:07:48 17 994 207 0 O 0 65.7 425
08:10:47 17 994 204 0 SO 0 66.4 427
08:13:49 17 993 203 7 SO 0 67.6 422
08:16:50 17 994 202 0 SO 0 67.9 425
08:19:48 16 994 202 2 N 0 66.9 428
08:22:50 16 994 200 3 SO 0 68.3 419
08:25:49 16 994 199 1 NO 0 68.3 424
08:28:48 16 993 201 0 O 0 68.2 427
08:31:48 16 994 203 0 O 0 68.7 430
08:34:51 16 994 207 2 NW 0 70.6 430
08:37:49 15 993 209 2 S 0 70.6 431
08:40:48 15 993 210 1 O 0 70.9 428
08:43:49 16 993 210 2 SO 0 70.9 422
08:46:47 16 993 210 1 SO 0 71 422
08:49:48 16 993 212 4 N 0 70.8 421
08:52:47 16 992 213 4 O 0 70.7 428
08:55:47 16 993 214 1 SO 0 69.9 425
08:58:49 16 993 216 1 NW 0 69.3 427
09:01:49 16 993 217 1 SO 0 69.6 421
09:04:47 16 993 217 1 SO 0 68.8 419
09:07:48 17 994 217 0 O 0 68.5 413
09:10:49 17 992 217 0 SO 0 68.3 416
09:13:49 17 993 216 2 NO 0 68.2 427
09:16:48 17 993 216 1 NO 0 68.7 427
09:19:48 17 992 217 1 O 0 68.8 425
09:22:48 17 992 218 3 N 0 67.9 424
09:25:49 17 993 218 3 NO 0 67.8 424
09:28:48 17 992 219 1 SO 0 67.5 425
09:31:48 17 992 219 3 S 0 67.7 425
09:34:48 17 993 218 0 NO 0 68 418
09:37:52 17 992 217 2 SW 0 68 416
09:40:48 17 992 216 4 SO 0 67.8 421
09:43:48 17 991 216 3 SO 0 66.9 427
09:46:50 17 992 217 1 NW 0 66.2 428
09:49:47 17 992 219 0 O 0 66.4 427
09:52:50 17 992 220 2 SW 0 68.5 424
09:55:47 17 992 220 1 SO 0 68.7 430
09:58:49 17 992 221 3 SO 0 68.3 427
10:01:49 17 991 223 3 SW 0 68.1 422
10:04:47 17 992 223 4 S 0 68 420
10:07:48 17 991 224 0 NO 0 66.1 422
10:10:47 18 992 225 3 O 0 66.3 431
10:13:48 18 991 225 2 SO 0 67.1 425
10:16:48 18 992 225 5 SO 0 66.3 419
10:19:49 18 992 225 1 O 0 64.7 410
10:22:47 19 991 224 4 O 0 64.5 407
10:25:48 19 992 224 4 NO 0 64.2 411
10:28:49 19 991 224 3 NO 0 63.4 412
10:31:48 19 992 224 3 O 0 63.6 413
10:34:49 19 992 223 3 S 0 64 422
10:37:46 19 991 223 2 O 0 63.7 419
10:40:50 19 991 224 4 SO 0 62.9 413
10:43:48 19 992 224 7 SO 0 62.8 409
10:46:48 19 991 225 3 SO 0 61.9 407
10:49:47 19 991 225 7 S 0 60.2 404
10:52:47 19 991 225 1 NW 0 61.5 404
10:55:47 19 991 225 5 S 0 60.3 404
10:58:47 19 991 225 2 NW 0 61.1 410
11:01:47 20 991 225 5 S 0 60.6 410
11:04:46 20 991 224 9 S 0 60.6 413
11:07:48 20 991 224 8 SO 0 60.7 410
11:10:48 20 992 223 2 S 0 60.1 410
11:13:48 20 991 222 6 O 0 59.2 410
11:16:47 20 991 221 4 SO 0 57.2 410
11:19:47 20 991 222 5 S 0 56.5 410
11:22:48 20 991 225 18 SW 0 56.8 407
11:25:52 20 991 226 5 O 0 56.5 408
11:28:48 20 991 226 6 S 0 56.8 407
11:31:48 20 991 227 2 SO 0 57 404
11:34:48 20 991 227 6 O 0 55.9 407
11:37:48 20 991 228 6 SO 0 56.1 407
11:40:48 20 991 228 3 NO 0 56.2 407
11:43:47 21 991 229 4 NO 0 57 404
11:46:49 21 991 229 2 O 0 54.2 406
11:49:47 21 991 227 4 SO 0 54.5 404
11:52:50 21 991 226 16 SO 0 55.4 401
11:55:47 22 991 225 7 SO 0 55.2 407
11:58:46 22 991 225 4 N 0 54.4 407
12:01:47 22 991 224 4 O 0 52.3 407
12:04:50 22 991 222 10 NO 0 50.9 407
12:07:48 22 991 220 9 O 0 52.4 404
12:10:49 22 991 222 2 O 0 53.3 407
12:13:49 22 991 221 5 S 0 53.3 407
12:16:33 21 991 220 4 SO 0 43.9 407
12:19:49 23 991 220 12 SO 0 48.8 404
12:22:48 23 991 221 2 S 0 48.6 407
12:25:46 24 991 223 5 0 49 407
12:28:47 24 991 224 7 SO 0 48.3 407
12:31:47 24 991 226 6 O 0 47 407
12:34:48 24 990 228 19 SO 0 46.1 407
12:37:49 25 991 230 10 SO 0 45.3 405
12:40:47 25 991 231 7 SO 0 46.2 407
12:43:48 25 990 231 8 NO 0 44.6 404
12:46:47 24 990 232 9 SO 0 43.6 407
12:49:50 24 991 231 8 SW 0 45.3 407
12:52:49 23 991 230 5 S 0 46.3 404
12:55:49 23 991 231 8 SW 0 47.1 407
12:58:46 23 991 231 12 SO 0 48.7 404
13:01:48 23 991 231 7 SO 0 49.7 404
13:04:48 24 991 231 8 O 0 48.8 404
13:07:48 24 991 231 7 W 0 47.9 401
13:10:46 24 991 232 6 W 0 46.4 404
13:13:46 24 991 232 5 N 0 47.3 406
13:16:49 24 991 233 3 W 0 47.4 404
13:19:46 24 991 231 16 O 0 48.2 407
13:22:45 24 990 231 4 S 0 47.6 407
13:25:50 24 990 230 9 SO 0 47 407
13:28:48 23 990 231 2 S 0 47.1 404
13:31:49 24 990 232 1 W 0 49.6 404
13:34:48 24 990 232 3 SO 0 49.7 407
13:37:48 24 990 233 4 O 0 48.2 406
13:40:48 24 990 235 5 S 0 47.8 405
13:43:48 25 990 236 6 SO 0 48.2 405
13:46:47 25 990 235 7 SO 0 45.6 407
13:49:48 25 990 235 4 SW 0 44 407
13:52:48 24 990 236 3 SO 0 44.5 404
13:55:47 25 989 236 3 NO 0 45.6 404
13:58:49 25 990 238 11 SO 0 47.1 404
14:01:49 26 989 237 3 NW 0 44.8 404
14:04:47 26 989 237 4 N 0 44.3 408
14:07:50 26 989 239 9 NW 0 45.5 405
14:10:46 26 989 237 4 0 45.5 407
14:13:49 26 989 237 6 SO 0 45 406
14:16:49 26 989 239 3 SO 0 44.2 408
14:19:47 26 990 237 12 S 0 44.5 407
14:22:48 26 989 236 9 N 0 42.8 404
14:25:47 26 989 237 12 S 0 42 407
14:28:48 26 989 238 3 SO 0 41.4 404
14:31:49 26 988 238 8 SO 0 42.6 407
14:34:48 26 989 237 5 S 0 43.6 401
14:37:47 26 989 241 4 SO 0 44.2 407
14:40:48 26 989 238 7 SW 0 43.4 404
14:43:48 26 989 236 6 SO 0 42.5 405
14:46:50 26 989 238 22 SO 0 42.7 407
14:49:49 26 989 238 9 SO 0 42.3 407
14:52:49 26 989 240 22 O 0 42.3 404
14:55:48 26 988 237 7 SW 0 42 407
14:58:49 26 988 240 8 SO 0 41.4 407
15:01:48 26 989 238 9 NW 0 42.3 404
15:04:48 26 989 241 6 SO 0 40.4 407
15:07:47 26 988 245 4 S 0 40.7 404
15:10:48 26 988 245 6 O 0 41.7 407
15:13:48 27 988 240 6 SW 0 40.9 404
15:16:47 27 988 237 9 S 0 40.4 407
15:19:48 26 988 244 10 SO 0 40.6 407
15:22:48 26 988 246 7 SO 0 41.9 404
15:25:49 26 988 246 16 SO 0 42.3 404
15:28:50 27 988 245 8 NO 0 41.8 407
15:31:48 27 988 242 14 W 0 40.9 406
15:34:48 27 988 243 12 NO 0 40.3 407
15:37:48 27 988 241 13 SO 0 39.1 407
15:40:49 27 987 240 10 SW 0 39.3 406
15:43:48 26 988 244 4 SO 0 40.6 406
15:46:49 26 987 242 8 S 0 41.5 407
15:49:46 26 988 246 6 SO 0 41.3 404
15:52:48 27 988 244 5 S 0 42.8 404
15:55:50 27 988 241 12 SO 0 40.8 419
15:58:46 27 987 244 17 S 0 39.9 418
16:01:48 27 987 247 5 N 0 40.4 421
16:04:47 27 987 246 16 S 0 41 413
16:07:47 28 988 247 11 O 0 41.1 410
16:10:47 28 987 247 11 O 0 40.6 403
16:13:50 28 987 238 11 SO 0 38.6 407
16:16:48 27 987 244 9 NO 0 38.4 406
16:19:47 27 987 247 9 S 0 40 413
16:22:50 27 987 245 5 NO 0 41.3 406
16:25:52 27 988 245 18 SO 0 40.1 408
16:28:53 26 987 243 7 SO 0 40.1 407
16:31:48 26 987 246 8 SW 0 41.7 407
16:34:47 26 987 245 5 NO 0 41.6 407
16:37:49 27 988 245 14 SO 0 41.4 404
16:40:48 27 987 246 4 O 0 41.8 406
16:43:47 27 987 240 4 O 0 41.7 404
16:46:46 26 988 236 8 S 0 41.6 404
16:49:49 26 987 233 6 SW 0 42.5 404
16:52:45 25 987 240 7 0 43.5 407
16:55:48 25 987 246 4 NO 0 45.9 404
16:58:45 26 987 247 5 0 46.2 407
17:01:47 27 987 247 19 SO 0 44.3 403
17:04:46 27 987 245 3 S 0 43.1 407
17:07:48 27 987 247 14 SO 0 42.4 406
17:10:49 28 987 247 6 NW 0 41.9 407
17:13:45 27 987 247 4 O 0 41.3 404
17:16:48 28 987 247 9 SO 0 41.6 406
17:19:48 29 987 247 8 S 0 40.9 407
17:22:47 29 987 247 3 S 0 39.1 407
17:25:45 29 987 245 8 N 0 39.1 407
17:28:47 29 986 247 4 O 0 39.2 404
17:31:46 29 987 247 11 O 0 39.3 407
17:34:48 30 987 247 5 NO 0 38.6 404
17:37:49 30 987 246 11 SW 0 37 407
17:40:48 29 987 247 3 O 0 37 404
17:43:48 29 986 246 9 SO 0 37.3 404
17:46:50 28 986 242 2 O 0 38.8 404
17:49:48 27 986 239 7 SW 0 40.3 407
17:52:48 26 987 246 9 O 0 42.9 407
17:55:48 27 986 246 22 S 0 43.5 407
17:58:47 28 987 246 8 O 0 41.3 404
18:01:51 28 987 245 5 NO 0 40.2 405
18:04:49 27 986 234 15 O 0 39.9 407
18:07:49 26 986 225 16 SO 0 41.1 405
18:10:47 25 986 211 5 O 0 43.1 407
18:13:48 25 986 205 17 S 0 44.5 404
18:16:48 24 985 201 17 SO 0 45.5 404
18:19:49 24 985 193 4 NO 0 47.1 404
18:22:50 23 986 188 11 SO 0 48.5 404
18:25:49 23 985 181 3 SO 0 49 404
18:28:49 23 986 177 1 S 0 50.2 404
18:31:49 22 985 177 12 SO 0 50.8 407
18:34:50 22 986 176 4 SW 0 51.5 401
18:37:50 22 985 176 4 NO 0 52.3 407
18:40:48 22 985 180 1 S 0 53 404
18:43:46 22 985 186 7 O 0 53.1 404
18:46:49 22 984 189 2 S 0 53.8 407
18:49:48 22 986 188 4 SW 0 54.1 404
18:52:47 22 984 191 0 0 54.1 407
18:55:46 22 985 196 5 S 0 54.1 407
18:58:49 22 984 194 5 SO 0 54.6 404
19:01:46 22 984 193 1 SO 0 54.6 406
19:04:50 22 985 189 3 NW 0 54.8 407
19:07:49 21 985 184 6 SO 0 54.5 407
19:10:47 21 985 184 2 SO 0 54.6 401
19:13:45 21 985 187 2 0 54.9 403
19:16:46 21 985 194 4 NO 0 55.5 404
19:19:47 21 984 197 4 O 0 55.5 407
19:22:49 21 984 201 4 SO 0 55.7 404
19:25:49 21 984 198 0 NO 0 55.5 407
19:28:47 21 985 198 1 S 0 55.7 407
19:31:48 21 985 197 2 NO 0 56 407
19:34:47 21 984 185 1 SO 0 56.2 407
19:37:47 21 984 171 3 NO 0 56.6 404
19:40:48 21 984 164 3 SO 0 56.6 404
19:43:49 21 984 154 9 SO 0 57 403
19:46:48 21 984 156 0 S 0 56.7 407
19:49:47 21 985 157 5 S 0 56.5 404
19:52:47 21 984 155 4 S 0 56.2 407
19:55:49 21 984 148 3 SO 0 56.4 404
19:58:45 21 984 140 3 N 0 56.4 407
20:01:48 21 984 139 0 S 0 56.6 410
20:04:48 21 984 135 4 SO 0 56.6 410
20:07:47 21 984 125 3 S 0 57.4 406
20:10:50 20 984 120 2 S 0 57.9 407
20:13:49 20 984 121 3 SO 0 58 409
20:16:47 20 984 133 1 SO 0 58 410
20:19:50 20 984 139 1 NW 0 58.2 410
20:22:50 20 984 148 0 SO 0 58.6 410
20:25:50 20 984 158 3 NW 0 58.9 416
20:28:49 20 984 159 3 NW 0 59.1 411
20:31:46 20 984 156 1 S 0 59.2 404
20:34:49 20 984 149 4 S 0 58.9 406
20:37:50 20 984 146 2 SO 0 59.5 407
20:40:48 20 984 145 2 S 0 59.5 407
20:43:47 20 984 144 3 N 0 59.3 413
20:46:46 20 984 140 5 N 0 59.8 404
20:49:47 20 984 135 4 NW 0 59.4 409
20:52:48 19 984 121 1 NW 0 59.8 404
20:55:46 19 984 106 4 S 0 59.4 403
20:58:48 19 984 92 4 NO 0 59.4 407
21:01:49 19 984 81 3 SO 0 59.5 407
21:04:46 19 984 72 1 SO 0 59.9 409
21:07:46 19 984 67 1 O 0 59.7 407
21:10:47 19 984 61 1 SO 0 59.8 403
21:13:48 19 984 54 6 NO 0 60.3 406
21:16:47 19 984 47 8 O 0 60.8 410
21:19:48 19 984 40 3 NO 0 61 411
21:22:46 19 984 31 1 O 0 61.8 410
21:25:48 19 984 24 3 SW 0 62.4 407
21:28:47 19 983 25 8 N 0 63.3 413
21:31:46 19 984 19 1 SW 0 63.3 412
21:34:48 18 984 11 4 SW 0 63.6 410
21:37:45 18 984 7 3 N 0 63.7 410
21:40:47 18 984 4 3 SO 0 63.8 410
21:43:48 18 984 3 2 SW 0 64.3 407
21:46:49 18 984 0 4 SW 0 64.5 407
21:49:48 18 983 0 5 NW 0 64.7 405
21:52:45 18 984 0 3 O 0 64.9 409
21:55:45 18 984 0 6 S 0 65 410
21:58:48 18 984 0 5 NO 0 65 407
22:01:46 18 984 0 8 S 0 65.3 407
22:04:46 18 983 0 6 S 0 65.1 407
22:07:48 18 984 0 11 SO 0 65.1 407
22:10:49 18 983 0 13 NO 0 65.3 404
22:13:47 18 984 0 9 O 0 65.3 404
22:16:48 19 983 0 10 SW 0 65.1 407
22:19:47 19 983 0 10 SO 0 65.1 415
22:22:49 18 983 0 4 NO 0 65.2 413
22:25:49 18 983 0 10 SO 0 65.3 410
22:28:46 18 983 0 5 SO 0 65.4 410
22:31:45 18 983 0 4 0 65.5 413
22:34:45 18 983 0 7 O 0 65.5 413
22:37:47 18 983 0 7 SO 0 65.5 412
22:40:46 18 983 0 7 SO 0 65.6 416
22:43:47 18 983 0 2 SO 0 65.6 419
22:46:49 18 984 0 5 NO 0 65.7 415
22:49:45 18 983 0 5 N 0 65.9 410
22:52:46 18 983 0 11 SO 0 66.1 407
22:55:46 18 982 0 4 S 0 65.9 410
22:58:47 18 983 0 11 SW 0 66.1 413
23:01:46 18 983 0 7 O 0 66.1 413
23:04:47 18 983 0 7 SO 0 66.4 412
23:07:47 18 983 0 13 S 0 66.5 410
23:10:49 18 982 0 4 SO 0 66.8 410
23:13:47 18 982 0 6 SO 0 67.3 415
23:16:45 18 982 0 11 SO 0 67.5 416
23:19:46 18 983 0 13 S 0 67.3 413
23:22:49 18 983 0 17 SO 0 66.9 413
23:25:48 18 982 0 4 S 0 66.7 416
23:28:48 18 982 0 15 SO 0 66.6 413
23:31:47 18 982 0 8 SO 0 66.5 407
23:34:50 18 982 0 8 SW 0 66.5 411
23:37:45 18 983 0 5 S 0 66.6 413
23:40:47 18 983 0 11 S 0 66.4 415
23:43:47 18 982 0 15 SO 0 66.2 414
23:46:46 18 983 0 15 SO 0 66.1 415
23:49:48 19 983 0 13 SW 0 66 415
23:52:46 19 983 0 13 S 0 66.4 423
23:55:47 19 983 0 7 S 0 66.7 416
23:58:48 19 983 0 8 SO 0 66.8 413

Letzte Änderung : 04-Jan-2022
Copyright Jens Köhler, Wolfsburg, Obere Dorfstraße 10d